CZ-6A DEB, 54986

Orbit data source: Space-Track

CZ-6A DEB, 54986 is space debris in SSO originally from a launch on Fri, 11 Nov 2022 UTC launched from the Taiyaun Space Center, China (TSC). Debris objects in space refer to the collection of defunct objects orbiting the Earth. Examples of debris include non-operational satellites, rocket bodies, and fragments generated from explosions, collisions, or faulty payload assembly.

Loading next visibility...
Identifier
54986, 2022-151UB
Orbit
SSO
Country
Flag of CNCN / PRC
Related business
Manufacturer
SAST
Mission
Spacecraft
Bus & Motor
Unknown
Mass
Unknown
Launch date (UTC)
2022-11-11 (4 years ago)
Launch vehicle
Unknown
Launch site
Taiyaun Space Center, China (TSC)
Object type
Payload
Rocket body
Debris
Shape & HBR
Unknown shape, 0.1 m
Radar Cross Section
Medium (>0.1 m² and <1 m²)

Expand to show TLE details & history
Last TLE update: 11 hours ago

TLE from 11 hours ago
0 CZ-6A DEB
1 54986U 22151UB  26237.30214127  .00001885  00000-0  88657-3 0  9992
2 54986  98.8130 245.0111 0043400  92.7292 267.8854 14.20687157194183
Epoch: 2026-08-25T07:15Z
TLE epoch observation values (Epoch: 2026-08-25T07:15:05.005Z)
Latitude
0.00004°
Longitude
162.6688°
Altitude
827.231 km
Speed
7.439 km/s
True Right ascension
16h 20m 02s
True Declination
0° 00' 00"
Sunlit
Object was in daylight at epoch
Visualization orbit readout
Latitude
Unknown
Longitude
Unknown
Altitude
Unknown
Speed
Unknown
Apparent Right ascension
Unknown
Apparent Declination
Unknown
Sunlit
N/A
Visualization observer readout
Local Sidereal Time
09:45:32
Azimuth
Unknown
Elevation
Unknown
Doppler factor
Unknown
Orbital elements
Apogee altitude
851.433 km
Perigee altitude
788.952 km
Semi-major axis
7,198.329 km
Eccentricity
0.00434
Inclination
98.813°
RAAN
245.0111°
Arg. of periapsis
92.7292°
True anomaly
267.38852°
Mean anomaly
267.8854°
Eccentric anomaly
267.63695°
Mean motion
3.55382 °/min
Orbital period
101.3 mins
BSTAR
0.00088657
Loading maneuver chart data...
Computing Atmospheric mass density...
Loading historical data...
Loading historical data...
Loading historical data...
Loading historical data...
Loading historical data...
Loading historical data...
Loading historical data...

Documentation

Showing up to 5 results
|